Easton, MD

12:01 PM EST on December 16, 2017 (GMT -0500)
Easton / Newnam

Weather History for KESN - February, 2014

Change the Weather History Date:

Saturday, February 22, 2014

  Actual Average Record
Temperature  
Mean Temperature 47 °F -  
Max Temperature 60 °F 50 °F 68 °F (1974)
Min Temperature 35 °F 28 °F 10 °F (1963)
Degree Days  
Heating Degree Days 18    
Moisture  
Dew Point 36 °F    
Average Humidity 61    
Maximum Humidity 100    
Minimum Humidity 36    
Precipitation  
Precipitation 0.00 in - - ()
Sea Level Pressure  
Sea Level Pressure 30.12 in    
Wind  
Wind Speed 6 mph (SSW)    
Max Wind Speed 14 mph    
Max Gust Speed 23 mph    
Visibility 10 miles    
Events      
Averages and records for this station are not official NWS values.
T = Trace of Precipitation, MM = Missing Value Source: NWS Daily Summary

Daily Weather History Graph

Daily Weather History Graph

Search for Another Location

Airport or City:

Trip Planner

Search our weather history database for the weather conditions in past years. The results will help you decide how hot, cold, wet, or windy it might be!

Date:

Astronomy

Feb. 22, 2014 Rise Set
Actual Time 6:46 AM EST 5:49 PM EST
Civil Twilight 6:19 AM EST 6:16 PM EST
Nautical Twilight 5:48 AM EST 6:47 PM EST
Astronomical Twilight 5:17 AM EST 7:18 PM EST
Moon 12:37 AM EST (2/22) 11:00 AM EST (2/22)
Length of Visible Light 11h 57m
Length of Day
11h 03m
Waning Gibbous, 50% of the Moon is Illuminated
Feb 22
Waning Gibbous
Feb 22
Last Quarter
Mar 1
New
Mar 8
First Quarter
Mar 16
Full

Hourly Weather History & Observations

Time (EST) Temp. Dew Point Humidity Pressure Visibility Wind Dir Wind Speed Gust Speed Precip Events Conditions
5:50 AM 35.6 °F 35.6 °F 100% 30.13 in 10.0 mi Calm Calm - N/A   Clear
6:50 AM 37.4 °F 37.4 °F 100% 30.14 in 10.0 mi Calm Calm - N/A   Mostly Cloudy
7:50 AM 41.0 °F 32.0 °F 70% 30.15 in 10.0 mi Calm Calm - N/A   Mostly Cloudy
8:45 AM 44.6 °F 41.0 °F 87% 30.16 in 10.0 mi Calm Calm - N/A   Mostly Cloudy
9:47 AM 53.6 °F 30.2 °F 41% 30.15 in 10.0 mi SW 5.8 mph - N/A   Scattered Clouds
10:45 AM 55.4 °F 30.2 °F 38% 30.16 in 10.0 mi SW 10.4 mph - N/A   Clear
11:51 AM 55.4 °F 32.0 °F 41% 30.15 in 10.0 mi SW 12.7 mph 20.7 mph N/A   Clear
12:50 PM 57.2 °F 32.0 °F 38% 30.13 in 10.0 mi SW 12.7 mph 20.7 mph N/A   Clear
1:50 PM 59.0 °F 32.0 °F 36% 30.10 in 10.0 mi SW 13.8 mph 23.0 mph N/A   Clear
2:47 PM 59.0 °F 35.6 °F 42% 30.09 in 10.0 mi South 11.5 mph - N/A   Partly Cloudy
3:47 PM 59.0 °F 32.0 °F 36% 30.08 in 10.0 mi South 12.7 mph 20.7 mph N/A   Clear
4:49 PM 57.2 °F 33.8 °F 41% 30.08 in 10.0 mi SSW 10.4 mph - N/A   Clear
5:45 PM 53.6 °F 33.8 °F 47% 30.08 in 10.0 mi South 9.2 mph - N/A   Clear
6:45 PM 50.0 °F 35.6 °F 58% 30.10 in 10.0 mi South 9.2 mph - N/A   Clear
7:51 PM 48.2 °F 37.4 °F 66% 30.11 in 10.0 mi South 6.9 mph - N/A   Clear
8:53 PM 48.2 °F 37.4 °F 66% 30.11 in 10.0 mi South 6.9 mph - N/A   Clear
9:28 PM 47.3 °F 38.1 °F 70% 30.11 in - SSW 9.2 mph - N/A   Clear
9:57 PM 48.0 °F 38.8 °F 71% 30.11 in - SSW 10.4 mph - N/A   Clear
10:17 PM 48.0 °F 39.4 °F 72% 30.11 in - SSW 12.7 mph - N/A   Clear
10:37 PM 48.6 °F 39.7 °F 72% 30.11 in - SSW 10.4 mph - N/A   Clear
10:57 PM 48.2 °F 39.2 °F 71% 30.11 in - SSW 11.5 mph - N/A   Clear
11:17 PM 48.0 °F 38.7 °F 70% 30.10 in - SSW 10.4 mph - N/A   Clear
11:37 PM 47.8 °F 38.5 °F 70% 30.10 in - SSW 11.5 mph 16.1 mph N/A   Clear
11:57 PM 48.0 °F 38.5 °F 70% 30.09 in - SSW 10.4 mph - N/A   Clear